Home > Weather > Oberwart > Past weeks

Flag for Austria Weather for the Past 2 Weeks in Oberwart, Burgenland, Austria

Now
28 °F

Passing clouds.


Feels Like: 28 °F
Forecast: 27 / 39 °F
Wind: 2 mph from North

Location: Graz-Thalerhof-Flughafen

Current Time: Feb 11, 2016 at 2:23:14 AM

Latest Report: Feb 11, 2016 at 1:20 AM


Visibility: N/A

Pressure: 29.59 "Hg

Humidity: 93%

Dew point: 27 °F

Location of OberwartLocation

Historic Weather in Oberwart — Graph

°F

Oberwart Temperature Yesterday

Maximum temperature yesterday: 48 °F (at 12:20 AM)
Minimum temperature yesterday: 28 °F (at 11:50 PM)
Average temperature yesterday: 39 °F

High & Low Weather Summary for the Past Weeks

 TemperatureHumidityPressure
High61 °F (Jan 28, 2:20 PM)100% (Jan 27, 12:50 AM)30.42 "Hg (Jan 27, 12:50 AM)
Low23 °F (Jan 27, 4:50 AM)31% (Feb 4, 1:20 PM)29.27 "Hg (Feb 10, 3:20 AM)
Average40 °F80%30.03 "Hg
* Reported Jan 27 12:50 AM — Feb 11 12:50 AM, Oberwart, Weather by CustomWeather, © 2016

Note: Actual official high and low records may vary slightly from our data, if they occured in-between our weather recording intervals... More about our weather records

Advertising

Oberwart Weather History for the Previous 24 Hours

 ConditionsComfort  
Time TempWeatherWind HumidityBarometerVisibility
12:50 AM
Thu, Feb 11
28 °FPassing clouds.1 mph93%29.59 "HgN/A
11:50 PM
Wed, Feb 10
28 °FPassing clouds.2 mph93%29.56 "HgN/A
11:20 PM30 °FClear.2 mph93%29.56 "Hg10 mi
10:50 PM30 °FClear.1 mph93%29.56 "Hg10 mi
10:20 PM32 °FPassing clouds.3 mph80%29.53 "HgN/A
9:50 PM34 °FPassing clouds.5 mph75%29.53 "HgN/A
9:20 PM34 °FClear.2 mph81%29.53 "Hg10 mi
8:50 PM34 °FClear.2 mph81%29.53 "Hg10 mi
8:20 PM36 °FPassing clouds.5 mph75%29.50 "HgN/A
7:50 PM36 °FClear.2 mph75%29.50 "Hg10 mi
7:20 PM34 °FPartly cloudy.3 mph93%29.50 "HgN/A
6:50 PM36 °FPartly cloudy.2 mph87%29.47 "HgN/A
6:20 PM37 °FPartly cloudy.2 mph75%29.47 "HgN/A
5:50 PM39 °FPartly cloudy.5 mph65%29.45 "HgN/A
5:20 PM39 °FPassing clouds.2 mph52%29.45 "HgN/A
4:50 PM43 °FPartly sunny.7 mph42%29.42 "HgN/A
4:20 PM43 °FPartly sunny.7 mph46%29.42 "HgN/A
3:50 PM43 °FBroken clouds.8 mph49%29.39 "HgN/A
3:20 PM41 °FMostly cloudy.2 mph76%29.39 "HgN/A
2:50 PM41 °FOvercast.5 mph76%29.36 "HgN/A
2:20 PM41 °FOvercast.2 mph81%29.36 "HgN/A
1:50 PM41 °FOvercast.5 mph81%29.33 "HgN/A
1:20 PM41 °FOvercast.5 mph81%29.33 "HgN/A
12:50 PM41 °FOvercast.3 mph81%29.33 "HgN/A
12:20 PM39 °FOvercast.2 mph87%29.33 "HgN/A
11:50 AM39 °FOvercast.2 mph87%29.33 "HgN/A
11:20 AM37 °FOvercast.2 mph93%29.33 "HgN/A
10:50 AM37 °FOvercast.5 mph93%29.33 "HgN/A
10:20 AM37 °FOvercast.3 mph93%29.33 "HgN/A
9:50 AM37 °FOvercast.6 mph93%29.33 "HgN/A
9:20 AM37 °FOvercast.5 mph93%29.33 "HgN/A
8:50 AM37 °FLight rain. Overcast.1 mph93%29.30 "HgN/A
8:20 AM37 °FLight rain. More clouds than sun.5 mph93%29.30 "HgN/A
7:50 AM37 °FLight rain. Overcast.5 mph93%29.30 "HgN/A
7:20 AM37 °FLight rain. Overcast.5 mph93%29.27 "HgN/A
6:50 AM37 °FRain. Passing clouds.7 mph93%29.27 "HgN/A
6:20 AM37 °FRain. Passing clouds.12 mph93%29.27 "Hg4 mi
5:50 AM37 °FLight rain. Passing clouds.25 mph87%29.27 "Hg3 mi
5:20 AM39 °FLight rain. Passing clouds.25 mph87%29.27 "Hg3 mi
4:50 AM41 °FRain. Passing clouds.18 mph81%29.27 "Hg2 mi
4:20 AM46 °FSprinkles. Passing clouds.6 mph82%29.27 "HgN/A
3:50 AM46 °FSprinkles. Overcast.9 mph76%29.27 "HgN/A
3:20 AM46 °FSprinkles. Passing clouds.6 mph76%29.27 "HgN/A
2:50 AM46 °FPassing clouds.9 mph76%29.30 "HgN/A
2:20 AM48 °FPassing clouds.13 mph76%29.33 "HgN/A
Weather by CustomWeather, © 2016

See weather overviewHow to use our weather pages